| time (UTC) | temp F | wind direction | speed MPH | gust MPH | rain 1hr in | rain 24hr in | rain mn in | humidity % | barometer mb |
| 20260502123013 | 75 | 0.0 | 0.0 | 0.00 | 0.00 | 0.00 | 33 | 1020.6 | |
| 20260502121512 | 74 | 0.0 | 0.0 | 0.00 | 0.00 | 0.00 | 35 | 1020.7 | |
| 20260502114512 | 72 | 0.0 | 0.0 | 0.00 | 0.00 | 0.00 | 38 | 1021.3 | |
| 20260502113013 | 72 | 0.0 | 0.0 | 0.00 | 0.00 | 0.00 | 43 | 1021.5 | |
| 20260502111512 | 71 | 0.0 | 0.0 | 0.00 | 0.00 | 0.00 | 46 | 1021.8 | |
| 20260502110012 | 70 | 0.0 | 0.0 | 0.00 | 0.00 | 0.00 | 46 | 1021.9 | |
| 20260502104512 | 70 | 0.0 | 0.0 | 0.00 | 0.00 | 0.00 | 49 | 1022.2 | |
| 20260502103012 | 70 | 0.0 | 0.0 | 0.00 | 0.00 | 0.00 | 48 | 1022.3 | |
| 20260502101513 | 68 | 0.0 | 0.0 | 0.00 | 0.00 | 0.00 | 53 | 1022.7 | |
| 20260502091512 | 66 | 0.0 | 0.0 | 0.00 | 0.00 | 0.00 | 45 | 1023.3 | |
| 20260502071512 | 81 | 0.0 | 0.0 | 0.00 | 0.00 | 0.00 | 29 | 1023.3 | |
| 20260502070012 | 83 | 0.0 | 0.0 | 0.00 | 0.00 | 0.00 | 32 | 1023.3 | |
| 20260502064512 | 80 | 0.0 | 0.0 | 0.00 | 0.00 | 0.00 | 35 | 1023.3 | |
| 20260502063012 | 75 | 0.0 | 0.0 | 0.00 | 0.00 | 0.00 | 43 | 1023.5 | |
| 20260502061512 | 67 | 0.0 | 0.0 | 0.00 | 0.00 | 0.00 | 50 | 1023.5 | |
| 20260502060012 | 68 | 0.0 | 0.0 | 0.00 | 0.00 | 0.00 | 52 | 1023.5 | |
| 20260502054512 | 62 | 0.0 | 0.0 | 0.00 | 0.00 | 0.00 | 63 | 1023.7 | |
| 20260502053012 | 61 | 0.0 | 0.0 | 0.00 | 0.00 | 0.00 | 58 | 1023.6 | |
| 20260502051512 | 61 | 0.0 | 0.0 | 0.00 | 0.00 | 0.00 | 69 | 1023.6 | |
| 20260502050012 | 54 | 0.0 | 0.0 | 0.00 | 0.00 | 0.00 | 99 | 1023.6 | |
| 20260502044512 | 47 | 0.0 | 0.0 | 0.00 | 0.00 | 0.00 | 99 | 1024.0 | |
| 20260502043012 | 42 | 0.0 | 0.0 | 0.00 | 0.00 | 0.00 | 99 | 1024.3 | |
| 20260502041511 | 41 | 0.0 | 0.0 | 0.00 | 0.00 | 0.00 | 99 | 1024.4 | |
| 20260502040012 | 41 | 0.0 | 0.0 | 0.00 | 0.00 | 0.00 | 99 | 1024.3 | |
| 20260502034512 | 41 | 0.0 | 0.0 | 0.00 | 0.00 | 0.00 | 99 | 1024.1 | |
| 20260502033012 | 41 | 0.0 | 0.0 | 0.00 | 0.00 | 0.00 | 99 | 1024.1 | |
| 20260502031512 | 41 | 0.0 | 0.0 | 0.00 | 0.00 | 0.00 | 99 | 1024.0 | |
| 20260502030012 | 42 | 0.0 | 0.0 | 0.00 | 0.00 | 0.00 | 99 | 1024.0 | |
| 20260502024512 | 42 | 0.0 | 0.0 | 0.00 | 0.00 | 0.00 | 99 | 1023.9 | |
| 20260502023012 | 42 | 0.0 | 0.0 | 0.00 | 0.00 | 0.00 | 99 | 1023.9 | |
| 20260502021511 | 43 | 0.0 | 0.0 | 0.00 | 0.00 | 0.00 | 99 | 1023.9 | |
| 20260502020013 | 44 | 0.0 | 0.0 | 0.00 | 0.00 | 0.00 | 99 | 1023.9 | |
| 20260502014512 | 44 | 0.0 | 0.0 | 0.00 | 0.00 | 0.00 | 99 | 1023.9 | |
| 20260502013012 | 44 | 0.0 | 0.0 | 0.00 | 0.00 | 0.00 | 99 | 1023.9 | |
| 20260502011512 | 44 | 0.0 | 0.0 | 0.00 | 0.00 | 0.00 | 99 | 1023.9 | |
| 20260502010013 | 46 | 0.0 | 0.0 | 0.00 | 0.00 | 0.00 | 99 | 1023.9 | |
| 20260502004512 | 46 | 0.0 | 0.0 | 0.00 | 0.00 | 0.00 | 99 | 1024.0 | |
| 20260502003012 | 46 | 0.0 | 0.0 | 0.00 | 0.00 | 0.00 | 99 | 1024.0 | |
| 20260502001512 | 48 | 0.0 | 0.0 | 0.00 | 0.00 | 0.00 | 99 | 1024.0 | |
| 20260502000013 | 47 | 0.0 | 0.0 | 0.00 | 0.00 | 0.00 | 99 | 1024.1 | |
| 20260501234512 | 48 | 0.0 | 0.0 | 0.00 | 0.00 | 0.00 | 97 | 1024.2 | |
| 20260501233012 | 48 | 0.0 | 0.0 | 0.00 | 0.00 | 0.00 | 98 | 1024.1 | |
| 20260501231512 | 49 | 0.0 | 0.0 | 0.00 | 0.00 | 0.00 | 90 | 1024.2 | |
| 20260501230012 | 50 | 0.0 | 0.0 | 0.00 | 0.00 | 0.00 | 86 | 1024.3 | |
| 20260501224513 | 50 | 0.0 | 0.0 | 0.00 | 0.00 | 0.00 | 86 | 1024.2 | |
| 20260501223011 | 50 | 0.0 | 0.0 | 0.00 | 0.00 | 0.00 | 81 | 1024.2 | |
| 20260501221512 | 52 | 0.0 | 0.0 | 0.00 | 0.00 | 0.00 | 67 | 1024.2 | |
| 20260501220012 | 53 | 0.0 | 0.0 | 0.00 | 0.00 | 0.00 | 60 | 1024.1 | |
| 20260501214512 | 53 | 0.0 | 0.0 | 0.00 | 0.00 | 0.00 | 61 | 1024.1 | |
| 20260501213012 | 52 | 0.0 | 0.0 | 0.00 | 0.00 | 0.00 | 64 | 1024.2 | |
| 20260501211511 | 52 | 0.0 | 0.0 | 0.00 | 0.00 | 0.00 | 64 | 1024.2 | |
| 20260501210011 | 52 | 0.0 | 0.0 | 0.00 | 0.00 | 0.00 | 62 | 1024.1 | |
| 20260501204512 | 53 | 0.0 | 0.0 | 0.00 | 0.00 | 0.00 | 59 | 1024.2 | |
| 20260501203012 | 53 | 0.0 | 0.0 | 0.00 | 0.00 | 0.00 | 59 | 1024.2 | |
| 20260501201512 | 52 | 0.0 | 0.0 | 0.00 | 0.00 | 0.00 | 63 | 1024.2 | |
| 20260501200012 | 53 | 0.0 | 0.0 | 0.00 | 0.00 | 0.00 | 60 | 1024.2 | |
| 20260501194512 | 53 | 0.0 | 0.0 | 0.00 | 0.00 | 0.00 | 56 | 1024.0 | |
| 20260501193012 | 54 | 0.0 | 0.0 | 0.00 | 0.00 | 0.00 | 55 | 1023.8 | |
| 20260501191512 | 56 | 0.0 | 0.0 | 0.00 | 0.00 | 0.00 | 52 | 1023.7 | |
| 20260501190012 | 58 | 0.0 | 0.0 | 0.00 | 0.00 | 0.00 | 45 | 1023.6 | |
| 20260501184512 | 60 | 0.0 | 0.0 | 0.00 | 0.00 | 0.00 | 44 | 1023.5 | |
| 20260501183012 | 64 | 0.0 | 0.0 | 0.00 | 0.00 | 0.00 | 43 | 1023.4 | |
| 20260501181512 | 66 | 0.0 | 0.0 | 0.00 | 0.00 | 0.00 | 39 | 1023.2 | |
| 20260501180012 | 66 | 0.0 | 0.0 | 0.00 | 0.00 | 0.00 | 35 | 1023.1 | |
| 20260501174513 | 67 | 0.0 | 0.0 | 0.00 | 0.00 | 0.00 | 35 | 1023.1 | |
| 20260501173012 | 67 | 0.0 | 0.0 | 0.00 | 0.00 | 0.00 | 35 | 1023.1 | |
| 20260501171512 | 68 | 0.0 | 0.0 | 0.00 | 0.00 | 0.00 | 33 | 1023.0 | |
| 20260501170012 | 70 | 0.0 | 0.0 | 0.00 | 0.00 | 0.00 | 32 | 1023.0 | |
| 20260501164512 | 69 | 0.0 | 0.0 | 0.00 | 0.00 | 0.00 | 33 | 1023.1 | |
| 20260501163011 | 69 | 0.0 | 0.0 | 0.00 | 0.00 | 0.00 | 32 | 1023.2 | |
| 20260501161512 | 70 | 0.0 | 0.0 | 0.00 | 0.00 | 0.00 | 31 | 1023.1 | |
| 20260501160012 | 71 | 0.0 | 0.0 | 0.00 | 0.00 | 0.00 | 30 | 1023.2 | |
| 20260501154513 | 70 | 0.0 | 0.0 | 0.00 | 0.00 | 0.00 | 31 | 1023.2 | |
| 20260501153012 | 74 | 0.0 | 0.0 | 0.00 | 0.00 | 0.00 | 31 | 1023.4 | |
| 20260501151512 | 72 | 0.0 | 0.0 | 0.00 | 0.00 | 0.00 | 32 | 1023.4 | |
| 20260501150012 | 72 | 0.0 | 0.0 | 0.00 | 0.00 | 0.00 | 34 | 1023.6 |